Location: Pedimozza
(42.0500°N, 9.3500°E)
Time: 18:14:32
(UTC+00:00)

Cosmos 2221 Rocket - Pass Details

Date: 19 August 2019
Orbit: 621 x 647 km, 82.5° (Epoch: 15 October)

Event Time Altitude Azimuth Distance (km) Brightness Sun altitude
Rises 19:36:22 0° 351° (N) 2,912 7.6 -14.0°
Reaches altitude 10° 19:38:36 10° 351° (N) 2,000 6.8 -14.4°
Maximum altitude 19:43:02 87° 264° (W) 628 3.5 -15.1°
Enters shadow 19:46:50 14° 175° (S) 1,747 5.5 -15.7°
